CPA288 EDDF-VHHH

Flight info

Callsign CPA288
Flight time N/A
Altitude 31000
Route SULUS7S/18 SULUS Z650 VEMUT DCT PEPIK DCT NORAH DCT BUDOP DCT LUGEB/N0488F330 DCT UDROS UM859 KARDE UL851 TBN UM11 REBLO M11 LUSAL N199 RASAM L88 METKA B476 TIMGA/N0485F350 B476 DARVA/K0898F350 T898 OGOLI N193 SR L163 TISIB L141 KAMUD/K0896S1070 W186 SADAN Y1 NUPNI/K0902S1130 Y1 OMBON W245 OVRAL B330 KWE W181 DUDIT A599 POU R473 SIERA
Aircraft B77W/H-SDE1E2E3FGHIJ2J3J4J5M1RWXY/LB1D1

Departure

Time 2026-05-05 17:32
Airport Frankfurt Main Airport (EDDF)

Arrival

Time N/A
Airport Hong Kong International Airport (VHHH)
Time Latitude Longitude Altitude Speed Heading
2026-05-05 16:44 50.03180 8.57416 361 ft 0 kts 205°
2026-05-05 17:15 50.03188 8.57422 361 ft 4 kts 208°
2026-05-05 17:15 50.03210 8.57443 369 ft 4 kts 221°
2026-05-05 17:15 50.03228 8.57472 365 ft 4 kts 234°
2026-05-05 17:15 50.03241 8.57508 368 ft 4 kts 252°
2026-05-05 17:16 50.03245 8.57547 366 ft 4 kts 285°
2026-05-05 17:16 50.03243 8.57557 364 ft 0 kts 294°
2026-05-05 17:20 50.03253 8.57524 367 ft 8 kts 295°
2026-05-05 17:20 50.03275 8.57449 362 ft 8 kts 295°
2026-05-05 17:20 50.03298 8.57374 367 ft 8 kts 295°
2026-05-05 17:20 50.03314 8.57321 366 ft 0 kts 294°
2026-05-05 17:22 50.03314 8.57320 366 ft 1 kts 294°
2026-05-05 17:23 50.03315 8.57316 366 ft 2 kts 294°
2026-05-05 17:23 50.03329 8.57270 365 ft 6 kts 294°
2026-05-05 17:23 50.03346 8.57209 362 ft 8 kts 292°
2026-05-05 17:24 50.03341 8.57065 361 ft 16 kts 251°
2026-05-05 17:24 50.03302 8.56901 366 ft 18 kts 250°
2026-05-05 17:24 50.03253 8.56692 362 ft 24 kts 250°
2026-05-05 17:24 50.03197 8.56452 355 ft 24 kts 250°
2026-05-05 17:25 50.03138 8.56209 356 ft 24 kts 249°
2026-05-05 17:25 50.03099 8.56044 359 ft 24 kts 249°
2026-05-05 17:25 50.03027 8.55745 358 ft 24 kts 250°
2026-05-05 17:25 50.02970 8.55506 357 ft 24 kts 249°
2026-05-05 17:26 50.02911 8.55262 352 ft 24 kts 249°
2026-05-05 17:26 50.02853 8.55019 355 ft 21 kts 250°
2026-05-05 17:26 50.02842 8.54850 351 ft 15 kts 303°
2026-05-05 17:26 50.02917 8.54749 354 ft 16 kts 314°
2026-05-05 17:27 50.03009 8.54655 337 ft 17 kts 338°
2026-05-05 17:27 50.03115 8.54594 351 ft 17 kts 340°
2026-05-05 17:27 50.03226 8.54531 352 ft 17 kts 340°
2026-05-05 17:27 50.03339 8.54467 353 ft 17 kts 340°
2026-05-05 17:28 50.03453 8.54400 353 ft 17 kts 339°
2026-05-05 17:28 50.03564 8.54335 355 ft 17 kts 339°
2026-05-05 17:28 50.03611 8.54300 354 ft 17 kts 323°
2026-05-05 17:28 50.03615 8.54135 353 ft 17 kts 250°
2026-05-05 17:29 50.03575 8.53968 356 ft 17 kts 250°
2026-05-05 17:29 50.03527 8.53767 355 ft 23 kts 250°
2026-05-05 17:29 50.03470 8.53526 350 ft 24 kts 249°
2026-05-05 17:29 50.03413 8.53291 345 ft 24 kts 249°
2026-05-05 17:30 50.03356 8.53052 336 ft 24 kts 250°
2026-05-05 17:30 50.03299 8.52814 336 ft 23 kts 250°
2026-05-05 17:30 50.03251 8.52637 335 ft 13 kts 233°
2026-05-05 17:30 50.03168 8.52597 338 ft 18 kts 181°
2026-05-05 17:31 50.02924 8.52599 338 ft 64 kts 180°
2026-05-05 17:31 50.02254 8.52605 339 ft 129 kts 179°
2026-05-05 17:31 50.01154 8.52616 334 ft 184 kts 180°
2026-05-05 17:31 49.99924 8.52662 571 ft 197 kts 179°
2026-05-05 17:32 49.98481 8.52712 1008 ft 204 kts 180°
2026-05-05 17:32 49.98003 8.52712 1225 ft 202 kts 180°
2026-05-05 17:32 49.96893 8.53003 1620 ft 203 kts 151°
2026-05-05 17:32 49.95889 8.54562 1892 ft 214 kts 120°